This demonstration page uses our WeatherBlox Daily Observations layout. Learn more.

Left ArrowRight Arrow

41.12389, -100.76542

Hourly Observations for September 28, 2017

Temp ( °F °C ) Dew Point ( °F °C ) Humidity (%) Winds ( mph kmh ) Pressure ( in mb ) Visibility ( mi km ) Precip ( " mm )
12:53 am 00:53 Clear 48 8.9 43 6.1 83 83 NE 3 6 30.27 1025 10 16 0.00 0.00
1:53 am 01:53 Clear 47 8.3 42 5.6 83 83 W 5 7 30.27 1025 10 16 0.00 0.00
2:53 am 02:53 Clear 46 7.8 44 6.7 93 93 Calm 30.28 1025 10 16 0.00 0.00
3:53 am 03:53 Clear 48 8.9 45 7.2 89 89 Calm 30.26 1025 10 16 0.00 0.00
4:53 am 04:53 Clear 47 8.3 44 6.7 90 90 Calm 30.26 1025 10 16 0.00 0.00
5:53 am 05:53 Clear 50 10 47 8.3 89 89 Calm 30.27 1025 10 16 0.00 0.00
6:53 am 06:53 Clear 49 9.4 46 7.8 90 90 NNW 5 7 30.28 1026 10 16 0.00 0.00
7:53 am 07:53 Mostly Cloudy 50 10 46 7.8 86 86 WSW 3 6 30.31 1026 10 16 0.00 0.00
8:53 am 08:53 Sunny 52 11.1 49 9.4 89 89 NW 3 6 30.32 1027 10 16 0.00 0.00
9:53 am 09:53 Sunny 55 12.8 50 10 83 83 NNW 3 6 30.32 1027 10 16 0.00 0.00
10:53 am 10:53 Sunny 62 16.7 46 7.8 56 56 WNW 3 6 30.31 1026 10 16 0.00 0.00
11:53 am 11:53 Sunny 67 19.4 46 7.8 47 47 Calm 30.28 1025 10 16 0.00 0.00
12:53 pm 12:53 Mostly Cloudy 71 21.7 41 5 34 34 WSW 3 6 30.28 1025 10 16 0.00 0.00
1:53 pm 13:53 Cloudy 71 21.7 43 6.1 36 36 W 3 6 30.28 1025 10 16 0.00 0.00
2:53 pm 14:53 Sunny 70 21.1 42 5.6 37 37 NW 6 9 30.26 1025 10 16 0.00 0.00
3:53 pm 15:53 Partly Cloudy 70 21.1 45 7.2 41 41 NW 8 13 30.24 1024 10 16 0.00 0.00
4:53 pm 16:53 Sunny 69 20.6 47 8.3 45 45 WNW 7 11 30.24 1024 10 16 0.00 0.00
5:53 pm 17:53 Sunny 69 20.6 46 7.8 44 44 WNW 3 6 30.22 1023 10 16 0.00 0.00
6:53 pm 18:53 Partly Cloudy 65 18.3 50 10 59 59 Calm 30.23 1024 10 16 0.00 0.00
7:53 pm 19:53 Cloudy 62 16.7 55 12.8 78 78 Calm 30.24 1024 10 16 0.00 0.00
8:53 pm 20:53 Cloudy 60 15.6 55 12.8 84 84 Calm 30.25 1024 10 16 0.00 0.00
9:53 pm 21:53 Cloudy 59 15 55 12.8 87 87 WSW 5 7 30.26 1025 10 16 0.00 0.00
10:53 pm 22:53 Cloudy 60 15.6 54 12.2 80 80 W 6 9 30.26 1025 10 16 0.00 0.00
11:53 pm 23:53 Cloudy 59 15 54 12.2 83 83 NNW 5 7 30.26 1025 10 16 0.00 0.00

Powered by AerisWeather